Location: Balmoral
(33.0667°S, 151.5833°E)
Time: 00:33:23
(UTC+00:00)

SJ-7 - Pass Details

Date: 18 September 2020
Orbit: 555 x 602 km, 97.7° (Epoch: 21 October)

Event Time Altitude Azimuth Distance (km) Brightness Sun altitude
Rises 18:57:06 0° 11° (NNE) 2,797 8.0 -11.4°
Reaches altitude 10° 18:59:15 10° 11° (N) 1,898 7.1 -10.9°
Maximum altitude 19:03:22 84° 284° (WNW) 590 4.4 -10.0°
Drops below altitude 10° 19:07:30 10° 193° (SSW) 1,898 7.0 -9.2°
Sets 19:09:39 0° 192° (SSW) 2,797 7.8 -8.7°
